Theta_e
300 300 299 300 301 301 301 301 301 301 300 298 297 296 296 296 296 296 296 296 296 296 296 296 297 297 297 297 297 297 297 297 297 297 297 297 297 296 296 296 296 296 296 296 296 296 296 296 296 296 295 295 295 295 295 295 295 295 295 295 296 296 296 296 296 297 297 297 297 297 297 297 297 297 296 296 297 297 297 298 298 298 299 299 299 299
299 299 299 299 300 300 300 299 299 299 297 296 295 294 295 295 295 296 295 295 295 295 296 296 296 297 296 296 296 296 296 296 296 296 296 296 296 295 295 295 295 295 294 294 294 294 294 295 295 294 294 294 294 294 294 294 294 294 294 294 294 294 295 295 295 295 295 295 295 295 295 295 295 295 295 296 296 296 297 297 298 298 298 299 299 299
298 298 298 298 299 299 299 298 297 296 295 295 295 294 294 295 295 295 295 295 295 295 296 296 296 296 296 296 295 295 294 294 294 294 294 294 294 294 294 294 294 294 294 294 294 294 294 294 294 293 293 293 293 293 293 293 293 293 293 293 293 293 293 293 293 293 293 293 293 293 294 294 294 294 294 295 295 295 296 296 297 297 297 298 298 299
297 297 297 297 298 298 298 297 296 295 294 295 295 294 294 294 295 295 295 295 295 295 295 295 295 295 295 294 294 293 292 292 293 293 292 292 293 293 293 293 293 293 293 293 293 293 293 293 293 293 293 293 293 293 293 292 292 292 292 292 292 292 292 292 292 292 292 292 292 292 293 293 293 293 293 294 294 294 295 295 296 296 296 297 297 298
297 297 297 298 298 297 297 296 296 295 295 295 295 294 294 294 294 294 295 295 295 295 294 294 294 294 294 294 293 292 291 291 291 291 291 291 292 292 292 293 293 293 293 293 293 293 293 293 293 293 292 292 292 292 292 292 292 292 292 291 291 291 291 291 291 291 291 291 291 291 291 292 292 292 292 293 293 293 293 294 294 295 295 296 297 297
297 297 298 298 298 297 296 295 295 295 295 294 294 293 293 293 293 293 294 294 294 294 294 294 294 294 294 293 292 291 291 290 290 289 289 290 291 292 292 293 293 293 293 293 293 293 292 292 292 292 292 292 292 292 291 291 291 291 291 291 290 290 290 290 290 289 289 290 290 290 290 290 290 291 291 291 292 292 292 293 293 294 294 295 296 296
296 297 297 297 297 296 295 295 295 294 294 294 294 293 293 293 293 293 293 294 294 294 294 294 294 294 293 292 292 291 290 290 289 289 289 289 290 291 292 292 292 292 292 292 291 291 291 291 291 291 291 291 291 291 291 290 290 290 290 290 289 289 289 289 288 288 288 288 288 288 288 289 289 289 290 290 290 291 291 291 292 292 293 294 295 295
296 296 296 296 296 295 295 294 294 294 294 294 294 293 293 293 293 293 293 293 293 294 294 294 294 293 293 292 291 290 290 290 289 289 288 288 289 290 290 290 290 290 290 290 290 290 290 290 289 289 290 290 290 290 290 290 290 289 289 289 289 288 288 288 288 287 287 287 287 287 287 288 288 288 288 289 289 289 290 290 290 291 292 292 293 294
297 296 296 295 295 294 294 294 294 294 294 294 294 294 294 293 293 292 292 293 293 293 293 293 293 293 292 291 291 290 290 289 289 288 288 288 288 289 289 289 289 288 288 288 289 289 289 289 289 289 289 289 290 290 290 290 289 289 289 289 288 288 287 287 287 287 286 286 286 286 287 287 287 287 287 288 288 289 289 289 290 290 290 291 292 293
297 296 296 295 295 294 294 294 294 294 294 294 294 294 294 293 293 292 292 292 292 292 292 293 293 293 292 291 290 290 289 289 288 288 288 288 288 288 288 288 288 288 287 288 288 289 289 289 289 289 289 289 289 289 289 289 289 289 288 288 288 287 287 286 286 286 285 285 286 286 287 287 288 288 288 288 288 288 289 289 289 289 289 290 291 291
296 296 295 295 294 294 294 294 293 293 293 293 293 293 293 294 293 293 292 292 292 291 291 292 292 292 291 290 289 289 289 288 288 288 288 288 288 288 288 288 287 287 287 287 288 288 289 288 288 288 288 288 288 288 288 288 288 288 288 287 287 287 286 286 286 285 285 285 286 287 288 288 288 289 289 289 289 289 289 289 289 289 289 289 290 290
295 295 295 294 294 294 294 294 293 292 292 292 292 292 292 293 293 293 293 292 291 291 290 290 290 290 290 289 289 289 288 288 288 288 288 288 288 288 288 287 287 287 287 287 287 287 288 288 288 287 287 287 287 287 287 287 287 287 286 286 286 286 286 286 286 286 286 286 287 287 288 288 288 289 289 289 289 289 289 289 289 289 289 289 289 290
295 295 294 294 294 294 294 294 293 292 292 292 292 292 291 291 292 292 293 292 291 290 290 290 289 289 289 289 289 288 288 288 288 288 288 288 287 287 287 287 287 287 287 287 287 287 287 287 287 287 287 286 286 286 286 286 286 285 285 285 285 286 286 287 287 287 287 287 287 287 288 288 288 288 289 289 289 289 290 290 290 290 289 290 290 290
295 294 294 294 294 294 294 293 293 292 292 292 292 291 291 291 291 291 291 291 290 290 289 289 289 289 289 288 288 288 288 288 288 288 288 287 287 287 287 287 287 287 287 286 286 286 286 286 287 286 286 286 286 285 285 284 284 284 285 286 286 287 287 287 287 287 287 287 287 287 288 288 288 288 288 289 289 289 289 289 289 290 290 290 290 290
294 294 294 293 293 293 293 293 293 292 292 291 291 291 291 290 290 290 290 290 289 289 289 289 289 288 288 288 288 288 288 288 288 288 287 287 287 287 287 287 286 286 285 285 285 285 285 285 286 286 286 285 285 284 283 283 284 285 286 286 287 287 287 287 287 287 287 287 287 287 288 288 288 288 288 288 289 289 289 289 289 289 289 289 290 290
294 294 294 293 293 293 293 293 293 292 291 291 291 291 290 290 289 289 289 289 289 288 288 288 288 288 288 288 287 287 287 287 287 287 287 287 287 286 286 286 285 285 284 284 284 284 284 285 285 285 285 284 284 283 283 284 285 286 286 287 287 287 287 287 287 287 287 287 287 287 288 288 288 288 288 288 288 288 288 288 289 289 289 289 289 289
294 294 294 294 293 293 293 293 292 292 291 291 290 290 290 289 289 289 289 288 288 288 288 287 287 287 287 287 287 287 287 287 286 286 286 286 286 285 285 285 285 284 284 284 284 284 284 285 285 284 284 283 283 283 284 285 286 286 286 287 287 287 287 287 287 286 286 287 287 287 287 288 288 288 288 288 288 288 288 288 288 288 288 288 289 289
293 293 293 293 293 293 292 292 291 291 291 290 289 289 289 289 288 288 288 288 288 287 287 287 287 287 287 287 286 286 286 286 286 285 285 285 285 285 285 284 284 284 284 284 284 284 284 284 284 284 283 283 283 284 285 285 286 286 287 287 287 287 287 287 286 286 286 286 287 287 287 287 288 288 288 288 288 288 288 288 288 288 288 288 288 288
292 292 292 292 292 292 292 291 291 290 290 289 289 288 288 288 288 288 287 287 287 287 287 287 286 286 286 286 286 286 286 285 285 285 285 284 284 284 284 284 284 284 284 284 284 284 284 284 283 283 283 283 283 284 285 285 286 286 286 287 287 287 287 286 286 286 286 287 287 287 287 287 288 288 288 288 288 288 288 288 288 288 288 288 288 288
292 292 292 291 291 291 291 290 290 290 289 289 289 288 288 288 287 287 287 287 287 287 287 286 286 286 286 286 286 286 285 285 285 284 284 284 284 284 285 285 285 284 284 284 283 283 283 283 283 283 283 283 283 283 284 285 286 286 286 287 287 286 286 286 286 286 286 286 287 287 287 287 287 288 288 288 288 288 288 289 289 288 288 288 288 288
292 291 291 291 291 290 290 290 290 289 289 289 289 288 288 288 287 287 287 287 287 287 286 286 286 286 286 286 286 285 285 284 284 284 284 285 285 285 285 285 285 284 284 284 283 283 283 283 283 283 283 283 283 283 284 285 285 286 286 287 286 286 285 286 286 286 286 286 287 287 287 287 287 287 287 288 288 288 288 289 289 289 289 289 289 289
291 291 290 290 290 290 290 290 289 289 289 288 288 288 288 288 287 287 287 287 287 286 286 286 286 285 285 285 285 285 284 284 284 285 285 285 285 285 285 285 285 284 284 284 283 283 283 283 283 283 283 283 283 283 284 285 286 286 286 286 286 285 285 286 286 286 286 286 286 286 286 286 287 287 287 287 287 287 287 288 288 288 288 289 289 289
290 290 290 289 289 289 289 289 289 288 288 288 288 288 288 288 287 287 287 287 286 286 285 285 285 284 284 284 284 284 284 284 284 284 284 285 285 286 285 285 285 284 284 284 283 283 283 283 283 283 283 283 283 283 284 285 286 286 286 285 285 285 286 286 286 286 286 286 286 286 286 286 286 286 286 287 287 287 287 287 287 287 288 288 288 289
289 289 289 289 288 288 288 288 288 288 288 288 288 288 287 287 287 286 286 286 285 285 284 284 284 284 284 284 284 284 284 284 284 284 284 284 285 285 285 285 284 284 284 284 283 283 283 283 283 283 283 283 284 284 284 285 286 286 286 286 286 286 286 286 286 287 287 287 287 287 287 287 287 287 287 286 287 287 287 287 287 287 287 287 287 288
289 288 288 288 288 288 288 288 288 288 288 288 287 287 287 287 286 286 286 285 285 284 284 284 283 283 283 284 284 284 284 284 284 284 284 284 285 285 284 284 284 284 284 284 283 283 283 283 283 283 283 284 284 284 284 285 285 286 285 286 286 286 286 286 286 286 286 286 286 286 286 287 287 287 287 287 286 286 286 287 287 287 287 287 287 287
288 288 288 288 288 288 287 287 287 287 287 287 287 287 287 286 286 286 285 285 284 284 284 283 283 283 283 283 284 284 284 284 283 283 283 284 284 284 284 284 284 284 284 283 283 283 283 283 283 283 284 284 284 284 284 285 285 285 285 285 285 285 285 285 285 286 286 286 286 286 286 286 286 286 286 286 286 286 286 286 286 287 287 287 287 287
288 287 287 287 287 287 287 287 287 287 287 287 287 287 286 286 285 285 284 284 284 284 284 283 283 283 283 283 283 283 283 283 283 283 283 283 283 284 284 284 284 283 283 283 283 283 283 283 283 284 284 284 284 284 284 285 285 285 285 284 284 284 284 284 284 285 285 286 286 286 286 286 286 286 286 286 286 286 286 286 286 286 286 286 286 286
287 287 287 287 287 287 287 287 287 287 287 287 286 286 286 285 285 284 284 284 284 284 284 283 283 284 283 283 283 283 282 282 282 282 282 283 283 284 284 284 283 283 283 283 283 283 283 283 284 284 284 284 284 284 285 285 285 285 284 284 284 283 283 283 284 284 285 285 285 286 285 285 285 285 286 286 286 286 286 286 286 286 286 286 286 286
286 286 286 287 286 287 287 287 287 287 287 287 287 286 286 285 285 285 285 284 284 284 284 284 284 283 283 283 282 282 282 282 282 282 282 282 283 284 284 284 283 283 283 283 283 283 283 283 284 284 284 285 285 285 285 285 284 284 284 283 283 283 283 283 283 284 285 285 285 285 285 285 285 285 285 285 285 286 286 286 286 286 286 286 286 285
286 286 286 286 286 286 286 286 286 286 287 287 287 287 286 286 285 285 285 285 285 284 284 284 284 283 283 283 282 282 282 282 282 282 282 283 283 284 283 283 283 283 283 283 283 283 283 284 284 284 284 285 285 285 285 284 284 284 283 283 283 283 283 283 283 284 284 284 284 284 284 284 285 285 285 285 285 285 285 286 286 286 286 286 285 285
285 285 285 285 285 285 285 285 285 285 285 286 286 286 286 286 286 285 285 285 284 284 284 283 283 283 283 283 281 281 281 282 283 283 283 283 283 283 283 283 283 283 283 283 283 283 281 283 284 284 284 285 285 285 284 284 283 283 282 283 283 283 283 283 283 283 283 284 284 284 284 284 284 284 284 284 285 285 285 285 286 286 286 285 285 285
285 285 285 285 285 285 285 285 285 285 285 285 285 285 285 285 285 285 284 284 284 283 283 283 282 282 282 282 282 281 281 282 282 282 282 282 282 282 283 283 283 283 283 282 283 282 279 282 284 284 284 284 284 284 284 283 283 282 282 282 283 283 283 283 283 283 283 283 283 283 283 283 283 283 283 284 284 284 285 285 285 285 285 285 285 285
284 284 284 284 285 285 285 285 285 284 284 284 284 284 284 284 284 284 283 283 283 282 282 282 282 281 281 281 282 282 282 282 281 281 281 281 282 282 282 282 283 283 283 282 282 282 281 282 283 283 283 283 283 283 282 282 282 282 282 282 282 283 283 283 283 283 283 283 283 283 283 283 283 283 283 283 284 284 284 285 285 285 285 285 285 285
284 284 284 284 284 284 284 284 284 284 284 284 284 284 284 283 283 283 283 282 282 282 281 281 281 281 281 281 281 281 281 281 281 281 281 281 282 282 282 282 283 282 282 282 282 282 282 282 282 282 282 282 282 282 282 282 282 282 282 282 282 282 282 283 283 283 283 283 283 283 283 283 283 283 283 283 284 284 284 284 285 285 286 285 285 285
284 284 284 284 284 284 284 284 284 284 283 283 283 283 283 283 283 282 282 282 282 281 281 281 281 281 281 281 281 280 280 281 281 281 281 281 281 282 282 282 282 282 282 282 282 282 282 282 282 282 281 281 281 281 281 281 282 282 282 282 282 282 282 282 283 283 283 283 283 283 283 283 283 283 283 283 283 284 284 284 284 285 285 285 285 285
284 284 283 283 283 283 283 283 283 282 282 282 282 282 282 282 282 282 282 282 281 281 281 281 281 281 281 281 281 280 280 280 280 280 280 281 281 281 281 282 282 282 282 282 282 282 282 282 281 281 281 280 280 281 281 281 281 281 282 282 282 282 282 282 282 283 283 283 283 283 283 283 283 283 283 283 283 283 283 284 284 284 284 285 285 285
283 283 283 283 282 282 282 282 281 281 281 281 281 281 281 281 281 281 281 281 281 281 281 281 281 281 281 281 281 281 281 281 280 280 280 281 281 281 281 281 281 281 281 281 281 281 281 281 281 280 280 280 280 280 281 281 281 281 282 282 282 282 282 282 282 282 283 283 283 283 283 283 283 283 283 283 283 283 283 283 283 284 284 284 284 284
282 282 282 282 281 281 281 281 281 281 280 281 281 281 281 281 281 281 281 281 281 281 281 281 281 281 281 281 281 281 281 281 281 281 281 281 281 281 281 281 281 281 281 281 281 281 281 280 280 280 280 280 280 280 280 280 280 281 281 282 283 283 283 282 282 282 282 283 283 283 283 283 283 283 283 283 283 283 283 283 283 283 283 283 283 284
283 282 282 282 281 281 281 280 280 281 281 281 281 281 281 281 281 281 281 281 281 281 281 281 281 281 281 281 281 281 280 280 280 280 280 281 281 281 281 281 281 281 280 280 280 280 280 280 280 280 280 280 280 280 280 280 280 280 281 282 283 283 283 282 282 282 282 283 283 283 283 283 283 283 283 283 283 283 283 283 283 283 283 283 283 284
283 283 283 283 282 281 281 281 281 281 281 281 281 281 281 281 281 281 281 281 281 281 281 281 281 281 281 280 280 280 280 280 280 280 280 280 280 280 281 280 280 280 280 280 280 280 280 280 280 280 279 279 279 279 280 280 280 280 280 281 282 283 283 283 283 282 282 283 283 283 283 283 283 283 283 283 283 283 283 283 283 283 283 283 284 284
284 284 284 283 283 282 281 281 281 281 281 281 281 281 281 281 281 281 281 281 281 281 281 281 280 280 280 280 279 279 279 279 279 280 280 280 280 280 280 280 280 280 280 280 280 280 280 280 280 279 279 279 279 279 279 279 279 279 279 280 281 282 283 283 283 283 283 283 283 283 283 283 283 283 283 283 283 283 283 283 283 283 283 283 283 283
284 284 284 283 283 282 282 281 281 281 281 281 281 281 281 281 281 281 281 281 281 281 281 280 280 279 279 279 279 279 279 279 280 280 280 280 280 280 280 280 280 280 280 280 280 280 280 280 279 279 279 279 279 279 279 279 279 279 279 279 280 281 282 283 283 283 283 283 283 282 282 282 283 283 283 283 283 283 283 283 283 283 283 283 283 283
285 285 284 284 283 283 282 282 282 281 281 281 281 281 281 281 281 281 281 280 280 280 279 279 279 279 279 279 280 280 280 280 280 280 280 280 280 280 280 280 280 280 280 280 280 280 280 280 279 279 279 279 279 279 278 278 278 279 279 279 279 279 280 283 284 283 283 283 283 283 283 283 283 283 283 283 283 283 283 283 283 283 283 283 283 283
285 285 284 284 283 283 283 283 282 282 281 281 281 280 280 280 280 280 280 280 279 279 279 279 279 279 280 280 280 280 280 280 280 280 280 280 280 280 280 280 280 280 280 280 280 280 280 279 279 279 279 278 278 278 278 278 278 279 278 278 278 278 279 281 282 283 283 283 283 283 283 282 283 283 283 283 284 284 284 283 283 283 283 283 283 283
285 285 285 284 284 283 283 283 283 282 282 281 281 281 280 280 280 280 279 279 279 279 279 279 279 279 279 280 280 280 280 280 280 280 280 280 280 280 280 280 280 280 280 280 280 280 280 280 279 279 279 278 278 278 278 278 278 278 278 279 279 279 280 281 281 282 282 282 283 283 283 282 282 283 283 284 284 284 284 284 284 284 284 283 283 283
286 285 285 284 284 284 284 283 283 283 282 282 281 281 280 280 280 279 279 279 279 279 279 279 279 279 279 279 280 280 280 280 280 280 280 280 280 279 280 280 280 281 280 280 280 280 280 280 279 279 279 279 279 278 278 278 278 278 278 279 279 279 279 280 281 281 282 282 282 283 282 282 282 283 283 283 284 284 284 284 284 284 284 284 283 283
285 285 285 285 284 284 284 284 283 283 283 282 282 281 281 280 280 279 279 279 279 279 279 279 279 279 279 280 280 280 280 280 280 280 280 280 279 279 279 280 280 280 280 280 280 280 280 280 280 279 279 279 279 279 279 279 279 278 279 279 279 279 279 280 281 281 281 281 282 282 282 282 282 283 283 283 283 284 284 284 284 284 284 283 283 283
285 285 285 285 284 284 284 284 283 283 283 283 282 282 281 281 280 280 279 279 279 279 279 279 279 279 279 279 280 280 280 280 280 280 280 279 279 279 279 279 279 280 280 280 280 280 280 280 279 279 279 279 279 279 279 279 279 279 279 279 279 279 279 280 281 281 281 282 282 282 282 282 282 282 282 282 283 283 284 284 284 284 283 283 283 283
285 285 285 285 284 284 284 284 284 283 283 283 283 282 282 281 280 280 280 279 279 279 279 279 279 279 279 279 279 279 280 280 280 280 279 279 279 278 278 278 278 279 279 279 279 279 279 279 279 279 279 279 279 279 279 279 279 279 279 279 279 279 279 280 281 282 282 282 282 282 282 282 282 282 282 282 282 282 283 284 284 284 283 283 283 283
285 285 285 285 284 284 284 284 284 284 283 283 283 283 282 281 281 280 280 279 279 279 279 279 279 278 279 279 279 279 279 279 279 279 279 279 278 278 278 278 278 278 279 279 279 279 279 279 279 279 279 279 279 279 279 279 279 279 279 279 279 279 279 280 281 282 282 282 282 282 282 282 282 282 282 281 281 282 282 283 283 283 283 283 283 282
285 285 285 285 284 284 284 284 284 283 283 283 283 283 282 282 281 281 280 280 279 279 279 279 278 278 278 278 278 278 279 279 279 279 279 279 279 278 278 278 278 278 278 279 279 279 279 279 279 279 279 280 280 280 280 280 280 280 279 279 279 280 280 280 281 282 282 282 282 282 282 282 282 282 282 282 281 281 281 282 282 282 282 282 282 282
Wind_Speed
15 14 12 11 10 9 8 8 7 7 5 3 3 5 7 9 9 9 9 8 8 9 10 11 11 10 10 9 9 8 8 7 7 7 7 7 6 6 6 6 7 7 7 7 7 7 6 6 6 6 5 4 3 2 1 1 1 2 2 2 2 2 2 1 1 1 1 1 1 1 2 3 3 3 3 3 3 3 4 4 5 6 6 7 8 8
15 13 12 10 8 7 6 5 5 4 4 3 4 5 7 9 10 10 9 9 8 8 9 9 9 9 8 8 7 6 6 6 6 6 6 6 6 5 4 4 4 4 4 4 4 3 3 3 3 2 2 1 1 1 1 1 2 2 2 2 2 2 2 1 1 1 1 1 1 1 2 3 3 3 3 3 3 4 4 4 5 5 6 6 6 6
16 14 12 10 7 6 5 4 3 4 5 5 4 5 6 8 9 10 10 9 9 8 8 7 7 7 6 5 4 3 3 3 3 3 3 3 3 3 2 2 2 2 1 1 0 1 1 1 1 1 2 2 2 2 2 2 1 1 1 1 1 1 1 1 1 2 2 2 2 3 3 3 4 4 4 4 5 5 5 5 5 6 6 6 6 6
18 16 13 10 8 6 5 4 4 6 7 7 6 6 6 7 8 9 9 9 8 8 7 6 5 5 4 3 3 2 1 1 0 0 1 1 1 1 1 1 1 1 1 1 1 1 1 1 1 2 3 3 2 2 1 1 0 0 1 1 1 2 2 2 3 3 4 4 4 4 4 4 5 5 5 5 5 5 6 6 6 6 6 6 6 6
17 16 14 11 9 8 5 5 6 8 9 9 8 8 7 7 7 7 8 8 8 7 6 5 4 4 3 3 2 2 2 1 1 1 2 2 2 2 2 2 2 2 2 1 1 1 1 2 2 2 2 2 1 0 0 1 2 2 3 3 3 4 4 4 5 5 5 6 6 6 6 6 6 6 6 6 6 6 6 6 7 7 6 6 7 7
17 15 13 11 10 9 7 6 8 9 10 10 10 9 8 8 7 7 7 7 7 6 6 5 4 4 3 3 3 3 2 1 1 1 2 2 2 2 2 2 2 2 1 1 1 1 1 1 1 1 1 1 1 1 2 3 3 4 4 5 5 6 6 6 7 7 7 7 8 8 8 8 8 8 8 8 8 7 7 7 7 7 7 7 7 7
17 15 13 11 10 9 8 8 10 11 12 11 11 10 9 8 8 7 7 7 7 7 6 6 5 5 4 4 3 3 3 2 0 1 1 1 2 2 2 2 2 2 2 1 1 1 2 2 2 2 2 3 3 3 4 4 4 5 5 6 6 7 7 7 8 8 8 9 9 9 9 9 9 9 9 9 9 8 8 8 8 8 7 7 8 8
17 16 14 12 11 10 10 10 12 13 13 12 11 10 9 9 9 8 8 8 8 7 7 7 6 6 5 5 4 3 3 1 1 1 1 1 2 3 3 3 3 3 2 3 3 3 3 4 4 4 4 4 4 5 5 5 5 6 6 7 7 8 8 8 9 9 10 10 10 10 10 10 10 10 10 10 9 9 9 9 8 8 8 8 8 8
19 17 16 13 12 11 11 11 12 13 12 11 10 9 9 9 9 9 9 9 8 8 7 7 7 7 6 6 5 4 3 2 2 2 2 2 3 4 5 5 5 5 4 4 4 4 4 4 4 4 4 4 4 4 4 5 5 6 7 8 8 9 9 10 10 10 10 10 10 9 9 9 9 9 10 10 10 10 10 9 9 9 9 9 9 8
20 18 17 15 13 12 11 11 12 12 11 10 10 9 10 10 10 10 9 9 8 8 7 7 7 7 7 6 5 4 3 3 3 3 3 4 5 6 6 6 6 6 6 5 4 4 4 4 3 3 3 3 3 4 4 5 6 7 8 8 9 10 10 10 11 10 10 9 8 8 7 7 8 8 8 8 9 9 9 9 9 9 9 9 9 9
18 17 16 14 14 13 12 12 12 11 10 10 9 9 10 10 11 11 10 9 8 8 7 7 8 8 8 7 6 5 5 5 5 5 5 6 6 7 7 7 7 7 7 6 5 5 4 4 4 4 4 5 5 5 6 7 8 8 8 9 9 10 10 10 10 10 9 8 7 7 7 7 7 7 7 7 7 7 8 8 8 8 9 9 9 9
16 15 13 12 13 13 12 12 11 11 10 9 8 8 9 10 10 10 11 10 9 8 8 8 8 8 8 8 7 6 6 6 6 6 6 7 7 7 8 8 8 8 8 7 7 7 6 6 6 6 7 8 8 8 9 10 10 10 10 9 9 9 9 9 9 9 8 7 7 6 6 6 6 6 6 6 6 6 6 7 7 7 7 8 8 8
17 15 13 12 13 13 12 12 12 11 10 9 8 7 8 9 10 10 10 10 10 9 9 8 8 8 8 8 8 7 7 7 7 7 7 8 8 8 8 8 8 8 8 9 9 9 9 9 9 10 10 10 11 11 11 11 11 11 10 9 9 9 8 8 8 8 7 7 7 6 6 6 6 6 5 5 5 5 5 6 6 6 6 6 7 7
16 14 13 12 12 12 13 13 12 11 10 9 9 9 10 10 10 10 10 10 10 10 9 8 8 8 8 8 8 8 8 8 8 8 8 8 8 9 9 9 9 9 10 10 11 11 11 11 11 11 11 11 11 11 11 11 10 9 8 7 7 7 7 7 7 7 7 7 7 6 6 6 6 5 5 5 5 5 5 5 5 5 6 6 6 6
14 14 12 11 11 11 12 12 12 10 10 9 10 10 10 10 10 10 10 10 10 9 8 8 8 8 8 8 8 8 8 8 8 8 8 9 9 9 9 9 10 10 11 11 11 11 11 11 11 10 10 10 10 9 8 8 7 6 6 6 6 6 6 6 6 6 6 6 6 6 6 6 6 5 5 5 5 5 5 5 5 6 6 6 6 6
15 14 12 12 12 12 12 12 11 10 10 11 11 10 10 9 9 9 9 9 9 8 7 6 6 7 8 9 9 8 8 7 8 8 8 9 9 9 9 9 9 9 9 9 9 9 9 9 9 8 8 8 7 6 5 5 4 4 5 5 6 6 6 6 6 6 6 6 6 6 6 6 6 6 5 5 6 6 6 6 6 6 6 6 6 6
14 13 13 13 12 12 13 13 12 11 12 11 11 10 10 9 9 8 8 8 8 7 7 6 5 4 4 6 7 8 7 7 7 8 9 9 9 9 9 9 8 7 7 7 7 7 7 7 7 6 6 6 5 4 4 4 4 4 5 5 5 5 6 6 7 7 6 6 6 6 6 6 6 6 6 6 6 6 6 6 6 6 6 6 6 6
13 12 12 12 12 13 13 14 13 13 12 12 11 11 10 9 8 8 8 8 7 7 6 6 5 3 3 3 5 7 7 6 6 8 9 10 10 9 8 7 6 5 5 4 4 5 5 5 5 5 5 5 4 3 3 4 4 5 5 5 5 5 6 6 7 7 6 5 5 5 5 5 5 5 5 6 6 6 6 6 6 6 6 6 7 7
13 12 12 11 12 13 15 15 14 14 13 12 11 11 10 9 8 8 7 7 7 7 6 6 5 5 4 3 4 6 6 6 7 9 10 11 10 7 6 5 4 3 3 3 3 4 4 5 5 5 5 4 4 3 3 4 4 5 5 5 5 5 6 7 7 7 5 4 4 5 5 4 4 5 5 5 5 6 6 6 6 6 7 7 7 7
13 12 11 11 12 14 15 15 14 13 13 12 11 10 10 9 8 7 7 7 7 7 7 7 7 7 7 6 6 6 8 8 9 9 10 10 8 6 4 3 3 3 3 2 3 3 4 4 4 4 4 5 4 4 4 4 4 4 4 4 4 5 6 7 6 5 4 3 4 4 4 4 4 3 4 4 5 5 5 5 5 6 6 7 7 7
13 12 11 11 12 13 14 14 13 12 11 11 10 10 9 9 8 8 8 7 7 7 8 8 8 8 8 8 7 8 9 9 8 8 7 7 6 4 3 3 3 3 3 3 2 3 3 4 4 4 5 5 5 5 4 4 4 4 4 4 4 5 5 5 5 4 3 4 4 4 4 4 4 4 4 4 5 5 5 5 5 5 6 6 6 7
11 12 11 10 10 11 12 12 12 11 10 9 9 9 9 9 9 9 8 8 8 8 8 7 7 8 9 9 9 9 8 8 7 6 5 5 5 4 3 3 3 4 4 4 3 3 3 4 4 5 6 6 6 6 4 3 3 3 3 4 4 4 5 5 4 4 4 4 4 5 5 5 5 5 5 6 5 5 6 6 6 6 5 5 6 6
9 10 10 9 9 9 9 10 10 10 10 9 8 8 8 8 8 7 7 7 7 7 7 7 8 9 9 9 9 8 7 6 5 5 4 4 3 3 3 4 5 5 5 5 4 4 4 5 5 5 6 7 7 6 4 3 2 2 3 3 3 4 4 5 5 5 5 5 5 5 5 5 6 6 6 6 6 6 7 7 7 6 6 6 6 6
8 8 8 8 8 8 8 9 9 9 9 9 8 7 7 6 6 6 6 6 6 7 7 8 8 7 7 7 6 5 5 4 4 3 3 4 4 4 5 5 6 6 6 6 6 6 6 6 5 6 6 7 6 5 4 3 2 2 2 2 3 4 5 5 6 6 6 6 6 6 6 6 6 6 6 7 7 7 7 7 7 7 7 7 7 7
7 7 7 7 7 7 7 8 8 8 8 8 8 7 7 6 6 6 6 7 7 7 6 6 5 5 5 4 4 4 4 3 3 3 3 3 4 5 6 6 7 7 7 7 7 8 8 7 5 5 6 6 5 4 3 3 2 1 1 2 3 4 5 6 6 6 6 6 6 6 6 6 6 6 6 7 7 7 7 8 8 8 8 8 8 8
6 6 6 6 6 6 6 7 7 7 7 7 7 6 6 6 6 6 6 6 5 5 4 4 4 5 5 4 3 3 3 3 3 4 4 4 4 5 6 6 6 7 8 9 9 9 9 7 5 4 5 5 4 4 4 4 3 1 2 3 4 5 6 6 6 6 7 6 6 6 6 6 6 6 6 7 7 7 7 8 8 8 8 8 8 8
4 4 4 4 4 4 5 5 5 6 6 6 6 6 6 6 6 5 5 5 4 4 4 4 4 5 5 4 4 3 4 4 5 5 5 5 4 4 5 6 6 7 9 10 10 10 9 6 3 3 4 4 4 5 6 5 4 3 4 5 7 8 8 8 7 7 6 6 6 6 6 6 6 6 7 7 7 7 7 8 8 8 8 8 9 9
5 5 5 4 4 4 4 4 4 4 5 5 5 6 6 5 5 5 5 5 4 4 5 5 5 4 4 3 4 5 6 6 6 6 6 6 4 4 4 5 6 7 9 10 10 9 7 4 3 4 4 5 6 6 6 5 5 5 7 9 10 12 12 11 9 7 6 6 6 6 6 6 6 7 7 7 7 7 7 7 8 8 8 8 9 9
6 7 7 7 6 6 6 7 6 6 5 5 5 5 5 5 5 5 5 5 5 5 6 6 6 5 4 5 6 8 7 7 6 5 5 5 5 4 4 5 5 7 8 8 8 6 4 2 3 4 5 6 6 6 6 5 5 7 9 11 13 13 12 11 9 7 5 5 5 5 6 6 7 7 7 7 7 7 7 7 7 7 8 8 8 9
6 7 8 8 9 9 9 9 10 9 8 7 6 6 7 7 6 6 6 6 6 6 6 7 7 6 6 5 5 6 5 3 3 3 4 4 4 4 4 4 5 6 7 6 5 4 2 2 3 5 6 6 6 6 6 5 7 9 12 13 13 12 10 9 8 7 6 6 5 5 6 6 7 7 7 7 7 7 7 7 7 7 7 8 8 9
6 7 8 8 9 9 9 10 10 10 10 10 9 8 8 8 8 8 7 8 8 8 7 7 8 7 7 4 2 1 3 1 3 3 2 3 3 3 3 4 5 5 6 4 3 3 2 2 2 4 5 6 6 7 7 8 10 13 14 12 10 8 8 8 8 9 9 8 8 8 8 8 8 8 8 7 7 7 7 6 6 7 7 8 8 9
6 7 8 8 8 8 9 9 9 9 10 10 10 10 10 9 9 9 9 8 8 8 8 8 8 8 8 7 5 4 3 2 2 2 2 2 3 4 4 5 5 5 6 4 3 2 1 3 3 4 5 7 8 9 10 12 14 14 12 10 8 7 7 8 9 10 10 10 10 10 10 10 10 9 9 8 7 6 6 6 6 6 7 7 8 9
6 7 8 8 8 8 8 8 8 8 9 9 9 9 9 9 9 9 9 8 8 8 8 8 8 8 9 10 10 9 7 5 4 5 6 5 4 4 5 5 5 5 5 5 4 4 3 4 4 5 7 9 11 13 14 14 14 12 10 9 8 7 8 8 9 10 11 11 11 11 11 11 10 10 9 8 8 7 6 5 5 5 6 7 8 9
6 7 8 9 9 9 9 9 9 9 9 9 10 10 10 10 9 9 8 8 8 8 8 8 8 8 9 10 11 12 11 9 8 8 9 7 6 5 5 5 5 5 5 5 5 4 5 6 6 7 9 12 15 16 16 14 12 11 10 10 10 9 9 9 9 10 10 10 10 10 10 9 9 9 9 9 8 7 6 5 5 5 6 7 8 9
6 7 8 8 9 9 9 10 10 10 10 11 11 11 11 10 10 9 9 8 8 8 8 8 8 8 8 9 11 12 11 9 7 8 9 8 7 6 6 6 6 5 5 5 4 4 4 6 7 8 9 13 16 17 15 12 11 10 11 11 12 11 10 9 9 9 9 9 8 8 8 8 8 8 8 8 8 8 7 6 6 6 7 7 8 9
8 8 8 8 9 9 10 10 10 11 11 11 11 11 11 11 10 9 9 8 8 8 8 8 8 8 8 9 10 10 10 7 6 7 8 8 8 8 7 6 6 6 6 6 5 5 5 7 9 11 12 12 13 13 12 11 11 12 13 14 13 12 10 8 7 7 7 7 7 6 6 7 7 7 7 7 7 8 8 8 7 7 8 8 8 8
8 8 8 8 9 9 10 10 10 10 10 10 10 10 10 10 10 9 9 8 8 9 9 9 9 9 9 10 10 10 9 7 7 7 8 9 9 9 9 8 8 8 8 8 8 8 8 9 10 12 12 11 10 8 10 14 16 17 17 17 14 11 7 5 5 6 6 5 5 5 5 5 6 6 6 7 7 8 8 8 8 8 8 8 8 8
6 6 6 7 7 8 9 9 9 8 8 8 8 8 9 9 9 8 8 8 9 9 9 9 9 10 10 10 11 11 10 9 9 9 9 9 10 11 11 11 11 11 11 11 10 10 10 10 9 9 10 11 12 13 15 17 19 20 20 17 13 9 5 4 4 5 5 4 4 4 4 5 5 6 6 7 7 8 8 8 8 8 9 9 10 10
4 4 4 4 5 6 7 7 7 6 6 6 7 7 7 8 8 8 8 9 9 9 10 10 10 10 11 11 12 12 12 12 11 11 10 10 11 11 12 12 13 13 13 13 12 12 12 11 10 9 9 11 13 15 16 17 18 19 20 18 13 7 4 4 4 4 4 4 3 3 3 4 5 6 6 7 8 8 8 8 8 8 9 9 10 10
4 4 4 3 3 4 5 5 6 6 6 6 7 7 7 7 8 8 9 9 9 10 10 11 11 12 13 13 14 14 14 14 13 12 12 11 11 11 12 13 13 13 13 13 13 13 13 13 14 13 13 12 13 14 15 15 16 17 18 16 13 9 5 4 3 3 3 3 3 3 4 4 5 6 7 7 8 8 9 9 8 8 8 9 10 10
6 5 4 3 3 3 4 5 6 7 7 7 7 7 8 8 8 9 9 10 10 11 12 12 13 14 14 15 15 15 14 14 13 13 12 12 12 12 12 13 13 14 14 14 14 14 14 14 14 14 14 13 13 14 14 15 15 14 13 13 14 14 10 5 3 3 3 3 4 5 6 6 6 7 7 8 8 8 8 8 8 8 8 8 9 10
7 7 5 4 3 4 5 6 7 8 8 8 8 8 9 9 9 10 10 11 12 13 13 14 14 14 14 14 13 13 13 12 12 12 12 11 12 12 13 14 14 14 15 15 15 15 15 14 14 14 13 12 12 12 13 14 13 12 11 13 15 15 11 5 2 2 4 5 6 7 8 8 8 8 8 9 8 8 7 7 7 7 7 7 8 9
9 8 6 5 5 5 6 7 7 8 8 9 9 10 10 10 10 11 12 12 13 14 14 14 13 12 12 11 11 10 10 10 10 10 10 11 11 12 13 14 14 14 14 15 15 16 15 15 14 14 13 13 12 12 13 13 13 12 11 12 13 12 10 6 5 5 7 8 8 8 8 9 9 9 10 9 9 8 7 7 8 7 7 7 8 8
11 9 8 7 7 7 7 7 7 8 9 9 10 10 11 11 11 12 12 13 13 13 12 11 11 10 10 10 10 9 8 8 8 8 9 9 10 11 11 12 12 12 13 14 15 15 14 14 14 14 13 12 12 13 13 13 14 14 13 12 12 12 12 12 12 11 10 9 9 8 8 9 10 10 11 10 10 9 9 8 8 8 8 8 8 9
13 12 11 10 9 9 9 8 8 8 9 10 10 10 11 11 11 12 12 12 12 11 10 9 9 8 8 9 9 9 8 8 8 8 8 8 9 9 9 10 10 10 11 13 14 14 14 13 13 13 12 12 13 13 13 13 14 14 15 14 14 14 16 16 15 14 14 12 10 8 8 9 10 11 12 11 11 11 10 10 10 9 9 8 9 10
15 14 13 12 11 11 11 10 9 9 9 10 10 10 10 10 10 10 10 10 10 9 9 8 8 8 8 8 8 8 8 8 9 9 9 9 8 8 8 8 9 9 10 11 12 13 14 14 13 12 12 12 13 14 14 14 14 14 16 16 16 16 17 17 16 15 14 13 11 9 8 9 10 11 12 13 13 13 12 11 11 11 10 10 11 11
17 16 15 14 13 13 12 11 11 11 10 10 10 9 9 8 9 9 9 9 9 8 8 8 9 9 10 10 9 9 9 9 10 10 10 10 9 7 6 7 7 8 9 10 10 11 13 13 13 13 13 13 13 14 14 14 14 15 15 16 16 17 18 18 17 14 13 12 11 10 9 10 11 12 13 13 14 15 14 13 13 12 12 12 12 13
18 17 16 15 15 14 14 13 13 12 12 11 10 9 8 8 8 9 9 9 8 9 9 9 10 10 11 11 11 11 11 11 11 11 11 11 9 7 5 5 6 7 8 9 10 11 12 13 13 14 14 15 14 14 15 15 15 15 15 16 16 17 18 18 16 14 12 12 11 11 11 11 12 13 14 15 16 17 17 16 15 14 14 14 14 14
19 18 18 17 17 16 16 15 14 14 13 12 11 10 9 8 9 9 9 9 9 9 10 10 11 11 11 11 11 11 11 11 11 11 10 10 9 7 5 5 5 5 6 8 9 10 12 13 14 15 16 17 17 17 17 16 15 15 15 15 16 16 17 17 16 14 13 12 12 12 11 12 12 12 14 16 18 19 19 19 18 17 16 15 14 14
20 20 19 18 18 18 17 16 16 15 15 14 12 11 10 10 9 10 10 10 10 10 11 11 12 12 12 12 12 12 11 11 11 11 11 10 8 7 5 5 5 5 6 7 8 9 10 12 14 15 16 17 18 18 18 17 16 15 15 15 16 16 16 17 16 14 13 13 13 13 13 13 12 12 13 15 17 19 20 21 20 19 17 15 14 14
20 19 19 19 19 18 18 17 17 17 16 15 14 13 12 11 11 11 11 11 11 11 12 12 13 13 13 13 13 13 12 12 12 12 11 11 9 8 6 6 5 5 6 6 7 7 8 9 10 11 14 15 16 17 18 18 17 15 15 15 16 16 16 16 16 14 14 14 14 14 14 13 13 12 12 14 15 17 18 19 20 19 17 15 14 14
Wind_Direction
175 176 182 190 197 205 217 234 249 260 262 237 184 167 172 178 179 177 177 178 183 189 196 199 203 210 221 228 234 239 246 253 259 264 267 270 273 277 281 282 279 275 270 267 265 263 263 263 267 271 274 274 271 256 225 191 174 169 164 149 145 158 166 185 200 200 199 246 258 255 253 257 260 268 283 296 307 315 319 317 310 304 299 292 287 282
173 174 176 184 195 204 212 238 258 263 249 209 169 161 166 170 169 169 173 175 177 180 186 192 198 205 214 221 227 234 242 250 257 262 265 268 270 273 278 279 278 272 265 260 261 263 266 266 269 269 265 237 177 140 134 139 150 160 166 168 170 170 177 180 198 202 201 230 262 271 266 264 265 269 279 288 297 304 307 307 305 303 300 297 293 286
169 171 175 182 191 201 206 219 231 230 219 211 192 177 175 174 172 173 176 179 179 179 181 187 190 191 195 199 204 211 228 244 255 263 268 272 275 277 278 278 271 264 260 264 312 334 322 324 352 73 103 107 107 107 109 120 133 150 167 185 189 200 227 245 257 256 251 257 267 272 272 273 273 275 280 282 285 288 288 293 296 297 300 301 299 294
171 172 176 181 188 196 205 208 206 200 197 199 196 190 188 187 185 183 184 185 183 179 176 179 178 174 170 165 158 149 160 181 210 290 323 330 347 8 22 25 22 25 46 64 65 59 45 45 65 85 98 98 97 99 110 127 182 261 265 260 263 269 278 277 277 275 271 268 270 274 274 275 278 280 282 283 284 283 283 288 290 290 293 298 299 297
174 176 179 180 183 188 193 199 197 191 187 187 187 186 186 188 189 189 189 189 187 181 174 173 170 163 154 148 142 137 132 120 94 70 60 60 66 69 67 65 59 58 66 77 89 98 106 108 108 107 106 100 94 81 284 288 295 297 294 289 285 284 286 285 284 281 278 275 275 276 277 276 277 279 280 281 281 281 282 285 287 287 287 290 293 293
176 178 180 180 182 184 183 184 183 182 180 179 177 176 177 178 182 186 189 191 192 189 181 177 172 167 162 166 165 158 150 139 94 65 63 80 93 97 96 95 99 107 115 122 131 136 139 145 153 166 177 217 268 284 290 295 298 298 297 293 290 288 288 288 287 286 283 280 279 278 277 276 277 277 276 276 276 277 279 281 284 285 285 286 287 286
176 178 178 179 179 178 176 175 175 175 174 172 170 168 168 169 172 176 182 187 191 193 190 185 180 176 176 183 186 180 173 168 129 43 60 110 133 141 143 149 154 162 175 184 193 200 214 228 235 244 254 266 275 281 285 289 291 291 290 288 287 287 289 290 290 290 289 287 284 281 279 277 275 275 274 274 275 275 275 276 278 280 282 284 284 283
172 175 176 178 177 176 175 173 172 171 171 169 168 167 165 166 167 169 173 178 183 187 189 187 184 182 183 191 199 202 200 212 255 302 296 206 191 192 197 207 214 221 234 241 247 254 258 261 264 268 274 279 282 284 286 286 284 281 278 279 281 284 288 290 291 292 291 291 288 286 284 280 277 275 274 273 273 272 271 272 273 275 277 279 280 280
171 172 176 178 177 175 175 175 173 172 173 173 174 174 173 170 167 166 168 170 173 178 182 184 185 187 191 200 208 216 223 238 253 257 251 232 225 226 230 235 240 246 251 257 262 267 268 271 275 281 287 290 291 290 287 281 276 273 272 276 280 284 287 290 291 292 293 292 291 290 290 287 284 280 276 274 271 269 269 269 270 271 272 273 275 276
173 173 175 177 176 173 171 173 174 174 175 180 183 183 182 177 172 169 168 168 169 173 179 185 189 192 198 207 216 223 230 240 248 249 245 239 236 238 242 247 250 252 252 253 259 265 267 270 275 282 284 283 283 280 274 268 267 270 273 278 283 287 290 292 294 294 294 293 293 293 294 293 291 288 284 279 275 273 271 269 268 269 270 270 271 271
170 172 172 174 175 174 170 171 170 171 175 182 187 188 187 184 181 179 178 175 173 174 179 185 190 194 198 206 214 222 230 240 249 253 252 249 248 249 251 255 258 259 257 252 249 248 251 253 257 261 263 262 264 267 268 267 269 273 278 282 286 290 293 295 297 298 297 295 294 294 294 294 294 293 291 287 283 280 277 273 272 271 270 269 269 268
165 169 170 172 174 175 171 169 167 169 175 181 184 186 189 189 187 186 183 181 178 177 180 183 188 193 199 205 213 223 232 239 247 251 252 251 251 251 253 257 260 262 262 259 254 249 248 249 253 258 264 267 270 273 274 275 276 278 280 283 286 290 294 297 300 301 301 299 297 297 296 296 294 292 295 293 291 287 284 282 279 277 275 272 271 270
166 168 169 171 174 175 173 171 171 175 179 183 183 181 181 183 184 182 180 180 179 180 183 185 191 198 206 214 222 229 235 240 245 247 247 247 247 247 249 251 254 258 261 262 259 256 254 255 257 262 268 273 276 277 278 278 278 278 280 282 286 290 294 298 300 302 302 301 300 299 299 298 296 295 297 295 292 290 286 285 283 283 282 281 279 277
165 166 167 169 172 175 175 174 174 176 181 187 189 186 181 178 178 177 175 177 181 185 190 194 201 210 221 229 235 238 240 241 241 242 241 241 244 246 248 252 255 260 263 265 263 260 259 258 260 264 270 275 278 280 279 278 277 277 279 283 287 291 295 298 300 302 303 302 301 300 299 298 296 295 295 293 291 289 286 285 285 284 284 285 286 284
165 165 166 168 172 175 178 180 181 182 185 188 190 188 183 178 177 177 175 177 182 191 199 207 219 229 236 240 243 243 241 239 237 237 236 239 244 251 256 261 266 269 270 269 265 262 261 260 261 265 272 277 282 283 282 280 278 279 281 284 287 291 295 298 301 302 302 301 300 299 297 296 294 291 289 289 289 289 288 288 287 286 286 286 287 288
169 169 169 171 174 178 182 185 186 187 188 187 188 187 182 178 180 182 182 184 190 200 207 219 233 241 243 244 244 242 239 236 236 237 238 242 251 260 267 274 279 279 276 271 265 260 260 261 263 268 275 281 285 286 285 283 282 281 283 285 288 291 295 298 299 299 300 300 299 297 296 295 291 288 285 285 286 287 288 287 287 286 285 285 285 286
172 174 176 177 178 183 187 189 190 190 189 187 185 185 184 184 188 192 194 198 203 210 215 220 227 233 234 233 236 238 235 234 241 248 251 257 265 272 277 282 285 284 279 272 264 259 258 261 266 273 280 285 289 289 288 286 285 285 287 287 289 292 295 297 296 294 292 295 297 297 295 294 291 288 284 281 281 283 286 287 287 287 285 284 283 283
175 178 181 182 184 187 189 190 191 192 191 186 184 185 188 193 198 202 207 211 214 215 218 219 221 222 219 203 219 234 240 242 255 267 272 275 278 280 281 282 283 283 281 274 267 262 262 265 271 277 284 290 292 291 288 289 289 290 290 289 289 291 294 297 296 292 289 291 295 297 296 295 295 293 289 286 284 283 283 284 285 285 285 284 282 282
180 183 185 187 189 191 191 191 191 191 190 188 187 187 188 195 202 208 211 217 218 218 218 217 222 227 226 210 222 240 256 265 277 286 289 289 287 285 281 275 275 281 285 282 274 268 266 268 272 278 286 294 296 291 288 288 290 291 290 288 288 290 291 294 295 294 291 294 297 297 295 294 294 296 298 297 294 291 287 285 285 285 284 282 281 280
187 188 189 191 192 191 190 192 194 195 195 195 195 194 192 196 201 205 209 215 220 225 230 226 226 232 237 232 240 258 270 279 288 294 295 294 292 287 275 265 270 284 296 296 284 274 270 272 276 283 292 300 302 297 291 288 289 289 288 286 285 288 292 297 299 301 303 304 300 294 290 288 287 286 290 290 291 292 290 291 289 286 283 280 279 278
193 192 194 196 195 193 191 193 195 198 199 202 203 201 201 201 202 204 211 216 223 230 237 234 234 241 250 247 253 266 275 282 289 294 294 292 289 282 264 262 276 294 311 316 303 286 282 283 287 294 301 304 303 298 289 284 284 285 285 282 282 289 299 307 313 316 315 307 299 294 292 290 289 287 285 283 281 279 277 278 278 278 278 278 277 277
199 196 196 196 197 197 197 196 195 196 200 204 207 209 209 209 208 210 218 224 229 233 236 237 244 255 261 260 263 268 273 275 279 283 286 280 278 274 260 273 288 301 316 324 322 308 302 301 302 303 302 299 294 287 277 271 272 275 274 275 284 298 313 321 324 322 313 303 299 297 296 295 293 292 292 291 289 283 276 276 275 273 274 274 275 276
202 198 195 192 192 195 198 196 194 194 197 201 208 215 220 220 220 223 228 233 237 241 247 253 259 264 267 268 268 266 263 264 268 271 270 264 265 270 275 288 294 301 311 320 322 320 317 314 310 303 295 288 283 274 258 245 245 255 262 275 295 313 322 321 319 314 308 302 299 298 297 295 294 293 293 293 291 289 287 285 284 283 279 276 272 270
195 194 191 188 187 189 191 193 194 195 197 200 204 209 216 220 224 228 234 243 250 255 258 262 264 266 268 266 261 254 248 246 255 262 259 259 267 279 284 291 294 298 305 312 317 320 321 320 312 297 283 276 272 263 233 207 204 235 264 292 314 322 320 317 313 309 306 302 300 298 297 296 295 295 294 293 292 290 288 287 284 283 281 278 274 271
189 188 188 187 186 187 189 193 197 200 203 205 208 213 218 223 229 237 245 250 253 254 256 259 266 272 273 261 247 238 232 231 245 260 263 264 274 279 280 287 291 295 303 309 315 320 321 321 310 287 270 265 259 240 201 178 174 208 277 304 315 317 317 315 313 310 306 303 301 300 299 298 298 298 297 296 295 292 290 287 285 283 280 278 276 274
187 188 189 189 190 191 194 199 205 210 215 218 223 228 232 238 242 246 246 243 242 243 247 258 271 280 282 274 259 241 232 237 252 264 267 268 273 275 273 281 287 295 304 310 316 321 322 321 307 275 255 246 228 198 181 174 177 209 265 284 294 300 305 307 308 307 306 304 302 301 301 301 301 302 301 300 298 296 293 290 287 284 281 279 277 275
173 178 182 185 189 194 201 208 214 221 228 234 240 245 247 248 244 236 226 226 230 237 246 259 271 279 283 278 266 252 249 256 263 267 268 265 265 266 267 275 286 296 305 311 317 322 323 318 294 250 230 217 200 189 188 194 208 240 268 282 289 293 295 295 296 297 301 301 300 300 300 301 302 303 303 302 301 298 296 293 289 286 283 280 276 272
157 157 159 164 169 176 186 196 206 217 230 242 249 253 253 248 234 220 218 228 237 244 249 255 263 271 274 268 269 272 272 271 268 264 261 254 250 252 261 273 286 298 306 313 318 321 321 304 256 218 207 202 198 197 202 216 242 271 286 293 296 296 294 292 290 289 293 296 298 299 300 301 303 304 304 303 302 300 298 296 293 289 285 279 274 269
175 172 171 171 175 179 184 185 188 193 206 226 243 253 253 247 238 232 235 244 249 251 252 256 259 262 267 276 283 286 284 276 263 251 245 237 238 246 256 271 285 298 309 317 319 319 317 280 226 207 203 205 206 207 214 234 263 286 296 298 297 295 292 287 283 281 282 286 291 295 297 300 302 303 303 302 302 301 299 298 296 292 286 280 275 272
198 197 195 195 196 197 196 194 192 192 194 203 216 231 243 242 243 247 252 255 257 256 255 259 261 262 264 277 287 289 284 268 231 213 221 222 229 244 258 272 284 297 312 323 323 317 308 253 220 212 210 213 216 220 229 251 278 295 301 302 299 292 284 276 270 265 263 266 272 280 287 293 297 299 300 300 299 299 298 298 297 293 287 282 278 275
213 211 209 209 209 208 206 204 202 200 199 199 203 212 226 234 240 246 251 257 261 263 262 263 263 262 258 257 261 281 279 186 151 165 200 212 236 259 268 278 283 292 304 323 330 321 310 291 238 218 221 224 229 237 251 271 290 301 306 306 300 287 275 267 263 261 260 261 264 270 278 283 287 290 291 292 292 293 294 296 297 294 289 286 283 281
226 220 214 213 212 211 210 210 210 211 211 210 211 215 223 231 238 245 251 257 262 266 267 267 266 263 258 249 242 244 253 178 161 198 244 259 270 271 269 273 274 280 291 303 307 290 259 314 286 239 240 244 250 259 272 286 298 306 311 311 300 283 273 268 267 266 265 266 269 273 278 282 283 283 282 280 280 282 285 290 293 293 292 291 289 288
230 223 218 216 215 215 215 216 219 222 225 226 228 230 234 238 243 248 253 258 262 265 267 267 266 264 262 257 255 254 252 246 251 263 272 279 280 274 269 268 266 269 279 286 284 273 261 283 287 276 270 269 272 279 288 298 306 312 315 315 308 297 287 279 274 271 270 271 273 276 279 281 281 279 277 274 273 273 274 278 284 289 293 293 293 293
234 226 222 221 221 222 224 227 230 233 236 239 242 244 246 248 250 252 256 259 263 266 267 267 266 264 262 261 262 264 266 262 262 267 272 273 270 264 264 264 264 265 270 276 276 270 262 261 269 280 285 286 289 294 301 308 313 315 315 316 314 311 305 294 284 277 274 274 275 277 277 277 277 275 274 273 272 270 268 269 277 286 290 291 293 294
246 238 234 232 232 234 236 238 240 242 244 246 247 249 249 250 251 252 254 258 263 267 269 271 270 268 266 263 264 268 275 277 273 269 269 264 258 256 261 263 263 263 264 267 268 266 264 264 271 282 292 296 299 302 306 311 313 311 311 312 313 313 311 302 291 283 278 276 275 275 273 271 270 269 269 270 270 268 265 267 272 277 280 282 286 288
256 252 250 248 248 249 250 250 251 251 251 250 250 249 248 247 247 248 250 255 260 264 268 271 272 273 272 271 270 274 283 290 285 274 269 263 258 256 260 261 262 262 261 262 264 268 275 279 283 288 293 296 299 302 306 307 306 305 304 307 309 310 308 300 291 285 281 278 275 270 266 263 261 261 262 265 266 265 264 264 265 266 266 268 272 278
260 260 259 259 259 260 260 259 258 257 256 253 249 247 245 243 242 244 247 252 257 261 265 268 270 272 274 276 276 278 283 285 280 271 268 265 263 262 261 262 263 263 263 263 265 270 277 283 288 290 290 288 289 294 300 302 302 302 303 307 310 311 307 296 287 283 281 278 273 266 259 256 254 254 256 258 260 261 262 263 263 264 263 261 261 264
263 265 266 266 265 265 265 264 262 259 255 250 245 242 240 239 240 244 248 253 257 261 265 267 269 270 272 275 277 279 279 277 272 268 266 266 265 265 265 265 266 267 267 267 268 270 274 279 284 287 286 284 283 286 292 298 301 303 305 309 310 309 305 295 287 281 277 272 265 258 254 253 254 254 255 257 258 259 260 260 260 261 261 260 259 258
272 278 281 278 273 269 267 265 261 255 249 244 241 239 239 241 245 249 254 257 260 264 266 268 270 271 272 273 274 275 275 273 270 267 265 265 265 266 267 268 269 270 272 272 272 270 269 268 269 273 280 285 288 290 293 296 299 303 306 308 306 301 293 289 283 274 264 259 253 251 253 255 257 259 260 260 261 262 263 261 260 260 261 263 263 262
284 290 298 298 285 273 266 261 256 251 247 244 243 243 245 249 252 256 259 261 264 266 268 271 273 274 274 273 273 272 271 270 269 267 265 264 264 265 267 268 271 273 274 274 273 271 268 265 265 267 271 278 285 290 293 294 296 301 306 308 307 304 302 293 276 254 240 243 257 269 274 272 270 268 268 265 265 266 268 268 268 267 269 274 277 279
287 291 299 303 291 271 262 257 253 250 248 248 249 251 253 255 257 259 260 262 264 266 269 272 273 274 273 272 271 270 268 267 266 265 263 262 262 263 265 266 268 271 272 272 271 270 269 266 265 266 268 272 278 283 285 287 291 296 300 299 299 301 303 297 267 237 236 256 279 292 295 293 287 280 272 266 263 263 266 270 273 276 279 283 288 293
288 292 297 297 289 274 265 260 257 254 253 254 255 256 257 259 260 262 263 265 267 269 272 275 276 276 274 271 268 266 264 263 262 261 261 261 262 264 265 267 268 269 269 269 269 268 267 265 263 262 264 268 273 277 280 283 285 287 286 288 294 299 300 287 242 242 271 287 295 299 302 302 297 288 277 269 262 258 261 266 273 279 284 289 294 298
288 291 293 291 284 276 271 268 264 262 260 259 259 259 260 262 264 267 269 272 273 275 277 278 278 276 273 269 266 262 258 258 258 259 260 263 265 267 267 268 267 266 265 265 264 265 265 264 261 260 262 264 267 270 275 279 282 281 278 282 290 296 296 288 279 281 289 295 299 303 305 305 299 290 279 271 265 261 261 264 269 274 281 289 296 300
286 288 287 283 280 276 274 273 271 269 267 265 263 262 263 265 267 270 273 276 277 277 277 276 274 272 271 269 267 264 260 257 257 259 263 267 270 270 269 266 264 262 259 259 258 258 259 259 258 259 262 264 265 266 269 274 276 277 277 279 280 277 275 283 292 298 299 300 302 305 308 306 298 289 281 275 270 268 266 266 266 269 276 285 294 300
280 281 280 278 276 275 274 275 277 275 273 270 266 264 263 265 268 271 274 275 276 275 273 271 270 271 272 273 274 274 273 270 267 268 271 275 275 271 266 261 258 256 254 254 254 254 254 253 255 260 265 267 265 264 264 267 271 274 276 278 277 276 278 286 293 298 301 304 308 312 312 307 300 294 289 283 277 273 271 270 270 272 278 285 292 298
274 275 276 276 275 275 276 279 279 277 274 271 268 265 263 264 266 269 271 272 272 269 267 263 264 267 269 272 275 276 275 274 276 279 282 283 280 272 262 255 252 252 252 252 253 253 254 255 256 260 265 266 265 263 262 263 267 271 275 278 279 281 285 289 292 296 300 304 308 313 316 309 302 299 297 293 286 278 273 272 275 279 284 290 294 298
271 273 274 275 275 276 277 277 277 275 273 271 268 265 263 263 264 266 267 267 266 264 263 262 263 266 269 272 274 274 272 272 276 281 287 290 288 278 261 253 252 253 253 254 255 255 256 258 259 259 259 259 261 262 263 263 263 266 271 277 280 282 283 285 290 297 303 306 310 314 317 312 308 306 304 299 292 284 278 277 278 283 289 293 297 299
271 272 273 274 273 273 273 273 273 273 272 271 270 267 264 262 263 264 265 265 263 262 262 264 266 268 271 274 275 275 275 275 276 280 286 291 294 291 275 264 258 256 256 258 259 260 260 261 261 259 257 255 256 260 264 264 263 264 269 274 277 279 281 285 292 300 305 308 311 315 317 315 312 310 309 304 298 292 287 285 285 287 291 296 299 301
271 271 272 272 271 270 271 272 272 272 272 272 271 269 265 262 262 263 264 265 264 263 263 265 267 269 271 273 274 275 275 274 275 277 280 286 292 296 293 287 279 272 270 269 270 270 270 269 266 260 256 253 253 255 261 263 263 264 267 270 272 274 278 285 293 302 307 310 313 314 314 312 311 309 307 302 299 297 295 294 293 293 296 299 301 301
270 271 272 271 270 270 271 272 272 272 272 272 272 271 268 264 263 263 264 265 265 264 265 265 267 268 269 271 273 273 271 270 270 271 274 278 284 288 289 289 290 289 287 285 284 282 280 277 272 265 258 253 251 252 254 258 261 264 266 267 268 271 276 283 293 303 310 313 314 313 311 309 308 306 302 296 294 295 297 297 297 298 300 302 303 301
268 270 271 271 270 270 272 272 273 273 273 273 273 271 269 267 264 263 263 264 265 266 267 268 268 268 268 269 271 272 271 269 268 267 269 272 275 275 273 273 277 283 286 285 284 281 279 279 277 272 265 256 250 249 250 252 255 259 261 264 267 271 275 283 293 304 310 312 311 310 308 305 303 301 296 292 289 290 293 295 296 298 299 300 299 296